User: anonymous   Login
Location: Unspecified
(0.0000°N, 0.0000°E)
Time: 17:28:37
(UTC+01:00)
Language:

GPS 2-12 Rocket1 - Orbit

View from above orbital plane
View from above orbital plane
View from above satellite
View from above satellite

Ground track
Ground track

The orbit data is extracted from the following two-line orbital elements,

1 21891U 92009B   14304.29946168  .00002250  00000-0  22745-3 0  3332
2 21891 019.9971 280.2700 0048983 121.8507 238.6690 14.81221165223646
Epoch (UTC): 31 October 2014 07:11:13
Eccentricity: 0.0048983
inclination: 19.9971°
perigee height: 591 km
apogee height: 660 km
right ascension of ascending node: 280.2700°
argument of perigee: 121.8507°
revolutions per day: 14.81221165
mean anomaly at epoch: 238.6690°
orbit number at epoch: 22364

The dashed part of the orbit path shows where the satellite is in the earth's shadow,  

DLR